星链-3862 (STARLINK-3862 )

导读 | 豆包AI

STARLINK-3862是美国太空探索技术公司(SpaceX)星链(Starlink)项目中的一颗低轨互联网通信卫星,于2022年5月6日发射入轨。作为星链星座组网的组成部分,它运行于近地轨道,旨在为全球尤其是偏远地区提供高速低延迟互联网接入服务,支撑星链实现全球宽带网络覆盖的建设目标。截至2025年底,星链项目已有近万颗卫星在轨,服务覆盖全球百余个国家和地区。

基本信息
目录编号:
52471
目录名称:
STARLINK-3862
国际标识:
2022-049W
轨道中心:
EARTH
卫星名称:
星链-3862
卫星全名:
星链-3862 (STARLINK-3862 )
卫星状态:
在轨 (已飞行1455 天)
发射日期:
2022-05-06 UTC
国别 :
美国 (US)
星等 :
--
轨道信息
数据来源 国际轨道数据
星历时间: 2026-04-30T22:05:29+0800
7小时前
查看轨道信息
半长轴: 6917.87km
偏心率: 0.0001242
轨道倾角: 53.217°
近地点辐角 92.020°
升交点赤经 186.152°
平近点角 268.094°
近地点: 538.873km
远地点: 540.593km
周期: 95.437分钟
每日圈数: 15.088437
详细信息
固有亮度:
5
最大亮度:
2.5
卫星平台:
Starlink v1.5
覆盖范围:
全球
运营商:
太空探索技术公司
运营商所在国:
美国
制造商(研发单位):
太空探索技术公司
制造商所在国:
美国
使用方式:
暂无
卫星简介
星链(Starlink)计划是由太空探索技术公司(SpaceX)提出的一个巨型低轨卫星互联网星座项目,计划在2019年至2024年间在太空搭建由约1.2万颗卫星组成的“星链”网络,其中1584颗将部署在地球上空550千米处的近地轨道,并从2020年开始工作。该卫星仍在工作。
2D轨道图
3D轨道图
轨道高度分析图
轨道倾角分析图
轨道综合分析图
查看轨道综合分析图